Find STARLINK-37940

NORAD ID: 799501037 Int'l Des: 2026-146P Constellation: starlink operational

現在のビュー

3D地球を読み込み中...

About STARLINK-37940

STARLINK-37940 (NORAD 799501037) is a starlink constellation satellite launched Jun 12, 2026

STARLINK-37940について

説明を読み込み中...

次回通過

Passes for default location (London). Set your location on the main map for personalized predictions.

高度履歴

Loading altitude history...

軌道要素

1 99999C 2026146P 26176.36368056 .00669310 00000-0 102850-3 0 1766
2 99999 97.2855 22.0224 0011178 278.4513 22.9595 16.03845543 15
Epoch: Jun 25, 2026 • Age: 9 hours